Rawlins, WY

5:45 PM MDT on May 22, 2017 (GMT -0600)
Rawlins Municipal

Weather History for KRWL - November, 2011

Change the Weather History Date:

Saturday, November 19, 2011

  Actual Average Record
Temperature  
Mean Temperature 19 °F 28 °F  
Max Temperature 25 °F 39 °F 61 °F (2007)
Min Temperature 13 °F 18 °F -2 °F (1977)
Degree Days  
Heating Degree Days 46 37  
Month to date heating degree days 700 613  
Since 1 July heating degree days 1509 1672  
Cooling Degree Days 0 0  
Month to date cooling degree days 0 0  
Year to date cooling degree days 242 186  
Moisture  
Dew Point 16 °F    
Average Humidity 77    
Maximum Humidity 96    
Minimum Humidity 57    
Precipitation  
Precipitation 0.08 in 0.02 in 0.43 in (1977)
Month to date precipitation 0.95 0.38  
Year to date precipitation 9.40 8.65  
Sea Level Pressure  
Sea Level Pressure 29.76 in    
Wind  
Wind Speed 12 mph (WSW)    
Max Wind Speed 29 mph    
Max Gust Speed 38 mph    
Visibility 7 miles    
Events Snow    
T = Trace of Precipitation, MM = Missing Value Source: NWS Daily Summary

Daily Weather History Graph

Daily Weather History Graph

Search for Another Location

Airport or City:

Trip Planner

Search our weather history database for the weather conditions in past years. The results will help you decide how hot, cold, wet, or windy it might be!

Date:

Astronomy

Nov. 19, 2011 Rise Set
Actual Time 7:02 AM MST 4:45 PM MST
Civil Twilight 6:32 AM MST 5:15 PM MST
Nautical Twilight 5:58 AM MST 5:49 PM MST
Astronomical Twilight 5:25 AM MST 6:22 PM MST
Moon 12:21 AM MST (11/19) 1:09 PM MST (11/19)
Length of Visible Light 10h 42m
Length of Day
9h 42m
Last Quarter, 37% of the Moon is Illuminated
Nov 19
Last Quarter
Nov 24
New
Dec 2
First Quarter
Dec 10
Full
Dec 17
Last Quarter

Hourly Weather History & Observations

Time (MST) Temp. Windchill Dew Point Humidity Pressure Visibility Wind Dir Wind Speed Gust Speed Precip Events Conditions
12:46 AM 21.2 °F 14.9 °F 19.4 °F 93% 29.56 in 1.0 mi West 4.6 mph - 0.04 in Snow Light Snow
12:53 AM 21.9 °F - 19.9 °F 92% 29.52 in 1.2 mi Calm Calm - 0.04 in Snow Light Snow
1:10 AM 21.2 °F - 19.4 °F 93% 29.55 in 1.2 mi Calm Calm - 0.01 in Snow Light Snow
1:53 AM 23.0 °F 17.0 °F 21.0 °F 92% 29.53 in 1.0 mi SSE 4.6 mph - 0.03 in Snow Light Snow
2:11 AM 23.0 °F 17.0 °F 21.2 °F 93% 29.58 in 1.0 mi SSW 4.6 mph - 0.00 in Snow Light Snow
2:53 AM 24.1 °F 16.0 °F 21.9 °F 91% 29.54 in 2.0 mi WSW 6.9 mph - 0.01 in Snow Light Snow
3:06 AM 24.8 °F 15.3 °F 21.2 °F 86% 29.58 in 4.0 mi SW 9.2 mph - 0.00 in Snow Light Snow
4:00 AM 24.8 °F 16.1 °F 19.4 °F 80% 29.58 in 10.0 mi WSW 8.1 mph - N/A   Overcast
6:51 AM 24.8 °F 10.0 °F 19.4 °F 80% 29.64 in 10.0 mi WSW 21.9 mph 32.2 mph N/A   Overcast
6:53 AM 25.0 °F 9.9 °F 19.0 °F 78% 29.68 in 10.0 mi WSW 23.0 mph 32.2 mph N/A   Overcast
8:53 AM 23.0 °F 8.0 °F 17.1 °F 78% 29.77 in 10.0 mi WSW 20.7 mph 31.1 mph N/A   Scattered Clouds
9:53 AM 23.0 °F 6.9 °F 16.0 °F 74% 29.81 in 10.0 mi West 24.2 mph 33.4 mph N/A   Overcast
10:53 AM 24.1 °F 8.3 °F 15.1 °F 69% 29.86 in 10.0 mi West 24.2 mph 32.2 mph N/A   Overcast
11:53 AM 23.0 °F 7.2 °F 12.9 °F 65% 29.88 in 10.0 mi West 23.0 mph 32.2 mph N/A   Overcast
12:53 PM 23.0 °F 8.0 °F 14.0 °F 68% 29.89 in 10.0 mi West 20.7 mph 29.9 mph N/A   Overcast
2:53 PM 21.9 °F 7.8 °F 10.0 °F 60% 29.94 in 10.0 mi West 17.3 mph - N/A   Overcast
3:53 PM 21.9 °F 11.0 °F 8.1 °F 55% 29.98 in 10.0 mi West 10.4 mph - N/A   Overcast
6:53 PM 19.9 °F 14.9 °F 12.0 °F 71% 30.00 in 10.0 mi SSW 3.5 mph - N/A   Overcast
9:53 PM 19.0 °F 13.9 °F 10.9 °F 71% 30.03 in 10.0 mi SSW 3.5 mph - N/A   Scattered Clouds
10:53 PM 18.0 °F - 10.9 °F 74% 30.04 in 10.0 mi Calm Calm - N/A   Overcast
11:53 PM 19.9 °F - 12.0 °F 71% 30.03 in 10.0 mi Calm Calm - N/A   Overcast